Two Harbors, MN

9:17 PM CDT on May 27, 2017 (GMT -0500)
Helgeson

Weather History for KTWM - February, 2014

Change the Weather History Date:

Tuesday, February 11, 2014

  Actual Average Record
Temperature  
Mean Temperature -4 °F -  
Max Temperature 12 °F 25 °F 46 °F (1977)
Min Temperature -20 °F 7 °F -23 °F (1981)
Degree Days  
Heating Degree Days 69    
Moisture  
Dew Point -10 °F    
Average Humidity 63    
Maximum Humidity 77    
Minimum Humidity 48    
Precipitation  
Precipitation 0.00 in - - ()
Sea Level Pressure  
Sea Level Pressure 30.15 in    
Wind  
Wind Speed 6 mph (SW)    
Max Wind Speed 17 mph    
Max Gust Speed 25 mph    
Visibility 9 miles    
Events Snow    
Averages and records for this station are not official NWS values.
T = Trace of Precipitation, MM = Missing Value Source: NWS Daily Summary

Daily Weather History Graph

Daily Weather History Graph

Search for Another Location

Airport or City:

Trip Planner

Search our weather history database for the weather conditions in past years. The results will help you decide how hot, cold, wet, or windy it might be!

Date:

Astronomy

Feb. 11, 2014 Rise Set
Actual Time 7:17 AM CST 5:25 PM CST
Civil Twilight 6:46 AM CST 5:56 PM CST
Nautical Twilight 6:10 AM CST 6:32 PM CST
Astronomical Twilight 5:35 AM CST 7:08 PM CST
Moon 2:41 PM CST (2/11) 5:00 AM CST (2/11)
Length of Visible Light 11h 10m
Length of Day
10h 07m
Waxing Gibbous, 91% of the Moon is Illuminated
Feb 11
Waxing Gibbous
Feb 14
Full
Feb 22
Last Quarter
Mar 1
New
Mar 8
First Quarter

Hourly Weather History & Observations

Time (CST) Temp. Windchill Dew Point Humidity Pressure Visibility Wind Dir Wind Speed Gust Speed Precip Events Conditions
12:13 AM -13.0 °F - -20.2 °F 70% 30.34 in 10.0 mi Calm Calm - N/A   Clear
12:33 AM -13.0 °F - -20.2 °F 70% 30.34 in 10.0 mi Calm Calm - N/A   Clear
12:53 AM -11.2 °F -20.6 °F -18.4 °F 70% 30.34 in 10.0 mi WNW 3.5 mph - N/A   Clear
1:13 AM -11.2 °F -23.0 °F -18.4 °F 70% 30.33 in 10.0 mi WNW 4.6 mph - N/A   Clear
1:33 AM -9.4 °F -20.9 °F -16.6 °F 71% 30.33 in 10.0 mi NW 4.6 mph - N/A   Clear
1:53 AM -9.4 °F -20.9 °F -18.4 °F 65% 30.33 in 10.0 mi NW 4.6 mph - N/A   Clear
2:13 AM -9.4 °F -22.7 °F -16.6 °F 71% 30.33 in 10.0 mi NW 5.8 mph - N/A   Clear
2:33 AM -9.4 °F -24.3 °F -16.6 °F 71% 30.33 in 10.0 mi NW 6.9 mph - N/A   Clear
2:53 AM -9.4 °F - -16.6 °F 71% 30.33 in 10.0 mi Calm Calm - N/A   Clear
3:13 AM -9.4 °F - -16.6 °F 71% 30.33 in 10.0 mi Calm Calm - N/A   Clear
3:33 AM -13.0 °F - -20.2 °F 70% 30.32 in 10.0 mi Calm Calm - N/A   Clear
3:53 AM -13.0 °F - -20.2 °F 70% 30.33 in 10.0 mi Calm Calm - N/A   Clear
4:13 AM -14.8 °F - -20.2 °F 77% 30.32 in 10.0 mi Calm Calm - N/A   Clear
4:33 AM -14.8 °F - -22.0 °F 70% 30.31 in 10.0 mi Calm Calm - N/A   Clear
4:53 AM -16.6 °F - -23.8 °F 70% 30.31 in 10.0 mi Calm Calm - N/A   Clear
5:13 AM -16.6 °F - -23.8 °F 70% 30.32 in 10.0 mi Calm Calm - N/A   Clear
5:33 AM -16.6 °F - -23.8 °F 70% 30.31 in 10.0 mi Calm Calm - N/A   Clear
5:53 AM -16.6 °F -29.3 °F -22.0 °F 76% 30.31 in 10.0 mi NW 4.6 mph - N/A   Clear
6:12 AM -14.8 °F -29.1 °F -22.0 °F 70% 30.30 in 10.0 mi NW 5.8 mph - N/A   Clear
6:33 AM -14.8 °F -27.2 °F -20.2 °F 77% 30.29 in 10.0 mi NW 4.6 mph - N/A   Clear
6:53 AM -18.4 °F - -25.6 °F 70% 30.29 in 10.0 mi Calm Calm - N/A   Clear
7:13 AM -20.2 °F - -27.4 °F 69% 30.28 in 10.0 mi Calm Calm - N/A   Clear
7:33 AM -20.2 °F - -29.2 °F 63% 30.28 in 10.0 mi Calm Calm - N/A   Clear
7:53 AM -20.2 °F - -27.4 °F 69% 30.27 in 10.0 mi Calm Calm - N/A   Clear
8:13 AM -18.4 °F -28.9 °F -25.6 °F 70% 30.27 in 10.0 mi West 3.5 mph - N/A   Clear
8:33 AM -16.6 °F -26.8 °F -23.8 °F 70% 30.25 in 10.0 mi SW 3.5 mph - N/A   Clear
8:53 AM -9.4 °F -18.6 °F -16.6 °F 71% 30.25 in 10.0 mi SW 3.5 mph - N/A   Clear
9:13 AM -5.8 °F -16.7 °F -11.2 °F 77% 30.24 in 10.0 mi SSW 4.6 mph - N/A   Clear
9:33 AM -2.2 °F -16.8 °F -11.2 °F 66% 30.24 in 10.0 mi SSW 8.1 mph - N/A   Clear
9:53 AM -0.4 °F -14.7 °F -9.4 °F 66% 30.23 in 10.0 mi SSW 8.1 mph - N/A   Clear
10:13 AM 1.4 °F -12.5 °F -9.4 °F 61% 30.23 in 10.0 mi SSW 8.1 mph - N/A   Clear
10:33 AM 3.2 °F -15.9 °F -9.4 °F 56% 30.24 in 10.0 mi SW 16.1 mph 23.0 mph N/A   Clear
10:53 AM 3.2 °F -16.5 °F -9.4 °F 56% 30.23 in 10.0 mi SW 17.3 mph 20.7 mph N/A   Clear
11:13 AM 5.0 °F -10.8 °F -7.6 °F 56% 30.22 in 10.0 mi South 11.5 mph - N/A   Clear
11:33 AM 5.0 °F -11.6 °F -7.6 °F 56% 30.21 in 10.0 mi South 12.7 mph - N/A   Clear
11:53 AM 6.8 °F -10.0 °F -7.6 °F 52% 30.20 in 10.0 mi South 13.8 mph - N/A   Clear
12:13 PM 6.8 °F -10.0 °F -7.6 °F 52% 30.18 in 10.0 mi South 13.8 mph 25.3 mph N/A   Clear
12:33 PM 6.8 °F -9.3 °F -7.6 °F 52% 30.16 in 10.0 mi SSW 12.7 mph 21.9 mph N/A   Clear
12:53 PM 8.6 °F -7.0 °F -5.8 °F 52% 30.15 in 10.0 mi SSW 12.7 mph 18.4 mph N/A   Clear
1:13 PM 8.6 °F -7.7 °F -5.8 °F 52% 30.14 in 10.0 mi SSW 13.8 mph 21.9 mph N/A   Clear
1:33 PM 10.4 °F -6.0 °F -5.8 °F 48% 30.12 in 10.0 mi SSW 15.0 mph - N/A   Clear
1:53 PM 10.4 °F -6.0 °F -5.8 °F 48% 30.11 in 10.0 mi SSW 15.0 mph 24.2 mph N/A   Clear
2:13 PM 10.4 °F -4.1 °F -2.2 °F 57% 30.09 in 10.0 mi SSW 11.5 mph 19.6 mph N/A   Clear
2:33 PM 12.2 °F -2.5 °F -2.2 °F 53% 30.08 in 10.0 mi SSW 12.7 mph 16.1 mph N/A   Clear
2:53 PM 12.2 °F -1.8 °F -2.2 °F 53% 30.07 in 10.0 mi SSW 11.5 mph - N/A   Clear
3:13 PM 12.2 °F -2.5 °F -2.2 °F 53% 30.06 in 10.0 mi SSW 12.7 mph 20.7 mph N/A   Clear
3:33 PM 12.2 °F -3.7 °F -2.2 °F 53% 30.05 in 10.0 mi SSW 15.0 mph 21.9 mph N/A   Clear
3:53 PM 12.2 °F -3.7 °F -2.2 °F 53% 30.04 in 10.0 mi SSW 15.0 mph 23.0 mph N/A   Clear
4:13 PM 12.2 °F -3.1 °F -2.2 °F 53% 30.02 in 10.0 mi South 13.8 mph - N/A   Clear
4:33 PM 12.2 °F -2.5 °F -2.2 °F 53% 30.02 in 10.0 mi South 12.7 mph 20.7 mph N/A   Scattered Clouds
4:53 PM 12.2 °F -1.8 °F -2.2 °F 53% 30.01 in 10.0 mi South 11.5 mph 20.7 mph N/A   Overcast
5:13 PM 12.2 °F -3.1 °F -2.2 °F 53% 30.00 in 10.0 mi South 13.8 mph - N/A   Overcast
5:33 PM 12.2 °F -0.2 °F -2.2 °F 53% 30.00 in 10.0 mi South 9.2 mph 16.1 mph N/A   Overcast
5:53 PM 12.2 °F -0.2 °F -2.2 °F 53% 30.00 in 10.0 mi South 9.2 mph 17.3 mph N/A   Overcast
6:13 PM 12.2 °F -1.0 °F -2.2 °F 53% 29.99 in 10.0 mi South 10.4 mph 18.4 mph N/A   Overcast
6:33 PM 10.4 °F -3.3 °F -2.2 °F 57% 29.98 in 10.0 mi South 10.4 mph 20.7 mph N/A   Overcast
6:53 PM 10.4 °F -5.4 °F -2.2 °F 57% 29.97 in 10.0 mi South 13.8 mph 18.4 mph N/A   Overcast
7:13 PM 10.4 °F -6.6 °F -2.2 °F 57% 29.96 in 10.0 mi South 16.1 mph 21.9 mph N/A   Overcast
7:33 PM 10.4 °F -4.8 °F -2.2 °F 57% 29.95 in 10.0 mi SSW 12.7 mph 21.9 mph N/A   Overcast
7:53 PM 10.4 °F -4.8 °F -2.2 °F 57% 29.95 in 10.0 mi SSW 12.7 mph - N/A   Overcast
8:13 PM 10.4 °F -4.8 °F -0.4 °F 62% 29.94 in 10.0 mi SSW 12.7 mph 18.4 mph N/A   Overcast
8:33 PM 10.4 °F -5.4 °F -0.4 °F 62% 29.93 in 10.0 mi SSW 13.8 mph 17.3 mph N/A   Overcast
8:53 PM 10.4 °F -7.2 °F -0.4 °F 62% 29.94 in 7.0 mi SSW 17.3 mph 24.2 mph N/A Snow Light Snow
9:13 PM 10.4 °F -4.1 °F 1.4 °F 67% 29.94 in 4.0 mi SW 11.5 mph 17.3 mph N/A Snow Snow
9:33 PM 10.4 °F -3.3 °F 3.2 °F 73% 29.94 in 4.0 mi SW 10.4 mph 20.7 mph N/A Snow Light Snow
9:53 PM 10.4 °F -6.0 °F 3.2 °F 73% 29.95 in 4.0 mi SW 15.0 mph 20.7 mph N/A Snow Light Snow
10:13 PM 10.4 °F -5.4 °F 3.2 °F 73% 29.94 in 7.0 mi SW 13.8 mph - N/A   Overcast
10:33 PM 10.4 °F -5.4 °F 3.2 °F 73% 29.94 in 5.0 mi SW 13.8 mph 18.4 mph N/A   Haze
10:53 PM 10.4 °F -5.4 °F 3.2 °F 73% 29.94 in 5.0 mi SW 13.8 mph 18.4 mph N/A Snow Light Snow
11:13 PM 10.4 °F -4.1 °F 3.2 °F 73% 29.95 in 7.0 mi SW 11.5 mph 17.3 mph N/A Snow Light Snow
11:33 PM 10.4 °F -4.8 °F 3.2 °F 73% 29.94 in 10.0 mi SW 12.7 mph 17.3 mph N/A Snow Light Snow
11:53 PM 10.4 °F -2.4 °F 3.2 °F 73% 29.94 in 7.0 mi SW 9.2 mph 17.3 mph N/A Snow Light Snow